Regional Weather Roundup
Issued by NWS

Home | Current Version | Previous Version | Graphics & Text | Print | Product List | Glossary On
Versions: 1 2 3 4 5 6 7 8 9 10 11 12 13 14 15 16 17 18 19 20 21 22 23 24 25 26 27 28 29 30 31 32 33 34 35 36 37 38 39 40 41 42 43 44 45 46 47 48 49 50
000
ASUS43 KLOT 292308
RWRIL

ILLINOIS REGIONAL WEATHER ROUNDUP
NATIONAL WEATHER SERVICE CHICAGO/ROMEOVILLE IL
600 PM CDT SUN MAY 29 2016

NOTE: "FAIR" INDICATES FEW OR NO CLOUDS BELOW 12,000 FEET WITH NO
SIGNIFICANT WEATHER AND/OR OBSTRUCTIONS TO VISIBILITY.

* THESE STATIONS ARE NOT UNDER NWS QUALITY CONTROL. THEY ALSO MAY NOT
  REPORT WEATHER SUCH AS PRECIPITATION OR FOG.

ILZ001-002-007-009-015-016-024-300000-
NORTHWEST ILLINOIS

CITY           SKY/WX    TMP DP  RH WIND       PRES   REMARKS
MOLINE         SUNNY     82  57  42 W9        30.00F HX  82
STERLING*      MOSUNNY   80  58  46 W18       30.00S HX  80
SAVANNA*       MOSUNNY   80  57  45 W12G18    29.99S HX  80
$$

ILZ003-004-008-010-011-017-018-300000-
NORTH CENTRAL ILLINOIS

CITY           SKY/WX    TMP DP  RH WIND       PRES   REMARKS
ROCKFORD       MOSUNNY   79  57  46 W13G20    30.01S HX  80
FREEPORT*      PTSUNNY   77  57  49 W15       30.01S
ROCHELLE*      MOSUNNY   78  59  51 W17       30.01S
DE KALB*       PTSUNNY   78  59  52 W16       30.01S
$$

ILZ005-006-012>014-019>023-300000-
NORTHEAST ILLINOIS

CITY           SKY/WX    TMP DP  RH WIND       PRES   REMARKS
CHICAGO-OHARE  MOSUNNY   77  58  51 W13G23    29.97F
CHICAGO-MIDWAY MOSUNNY   80  56  43 W16G23    29.98F HX  80
AURORA         SUNNY     79  59  50 W16       30.00F HX  80
LANSING*       MOSUNNY   80  54  41 W16       29.99F HX  80
JOLIET*        MOSUNNY   82  58  43 W12       30.00S HX  82
WAUKEGAN       MOSUNNY   78  57  48 SW8       29.96S
DUPAGE AIRPORT MOSUNNY   77  56  48 W12       29.99S
KANKAKEE*      SUNNY     82  53  36 W14       30.00F HX  81
WHEELING       MOSUNNY   80  56  43 W10       29.98F HX  80
MORRIS*        MOSUNNY   81  55  40 W13G18    29.99S HX  81
ROMEOVILLE*    SUNNY     80  52  37 W12       30.00F HX  80
NORTHERLY ISL    N/A     79  54  41 W13         N/A
NORTHERLY ISL    N/A     79  54  41 W13         N/A
$$

LMZ740>746-300000-
SOUTHERN LAKE MICHIGAN

STATION/POSITION SKY/WX   TEMP    WIND        PRES    VSBY  WAVE
                          AIR SEA DIR/SP/G                  HT/PER
                          (F)     (DEG/KT/KT) (MB)    (MI)  (FT/S)
SOUTHERN BUOY              58 51  190/ 10/ 12 1014.0F         1
WILMETTE HARBOR            69 54  290/  8/ 12   N/A           1/ 2
HARRISON CRIB              78     250/ 19/ 21   N/A
BURNHAM HARBOR             79     280/ 12/ 16   N/A
CALUMET HARBOR             79     250/  7/ 12 1015.1F
BURNS HARBOR               66     290/  8/ 10 1016.3S
MICHIGAN CITY              68     250/ 10/ 11   N/A
MICHIGAN CITY 6N           66 59  260/  6/  8   N/A           1/ 3
ST. JOSEPH                 65 62  250/  6/  6   N/A           1/ 3
$$

ILZ025>027-034>036-040-047-049-050-058-095>099-300000-
WEST-CENTRAL ILLINOIS

CITY           SKY/WX    TMP DP  RH WIND       PRES   REMARKS
QUINCY         SUNNY     83  58  42 W8        30.04F HX  83
GALESBURG*     MOSUNNY   80  55  42 W13       30.03F HX  80
MACOMB*        SUNNY     82  54  38 W10       30.05F HX  81
JACKSONVILLE*  SUNNY     83  55  36 W13       30.04F HX  82
PITTSFIELD*    MOSUNNY   82  60  47 W5        30.06F HX  83
$$

ILZ028>032-037-038-041>044-048-051>054-059>061-300000-
CENTRAL ILLINOIS

CITY           SKY/WX    TMP DP  RH WIND       PRES   REMARKS
PONTIAC        SUNNY     83  55  38 W15       30.01F HX  82
BLOOMINGTON    MOSUNNY   81  59  47 W13       30.05F HX  81
DECATUR        SUNNY     83  52  34 W12G21    30.03F HX  82
PEORIA         MOSUNNY   82  53  36 W12G22    30.03S HX  81
LACON*         MOSUNNY   82  54  38 W8        30.00F HX  81
LINCOLN*       SUNNY     83  60  45 W7        30.03F HX  83
SPRINGFIELD    SUNNY     85  54  34 NW10      30.04F HX  83
TAYLORVILLE    SUNNY     83  56  39 W8        30.03F HX  82
$$

ILZ033-039-045-046-055>057-062-063-300000-
EAST-CENTRAL ILLINOIS

CITY           SKY/WX    TMP DP  RH WIND       PRES   REMARKS
CHAMPAIGN      MOSUNNY   83  51  33 W12G23    30.03F HX  81
RANTOUL*       MOSUNNY   83  58  42 NW10      30.02F HX  83
MATTOON        CLOUDY    82  53  36 NW14      30.02F HX  81
PARIS*         MOSUNNY   84  56  38 W7        30.02F HX  83
$$

ILZ079-100>102-300000-
SOUTHWEST ILLINOIS

CITY           SKY/WX    TMP DP  RH WIND       PRES   REMARKS
ALTON          MOSUNNY   84  55  37 NW12      30.04F HX  83
CAHOKIA*       CLOUDY    86  54  33 NW9       30.03F HX  84
SPARTA*        CLOUDY    81  63  53 CALM      30.06F HX  82
$$

ILZ064>066-069>071-074>076-080>082-084>086-088>090-092>094-300000-
SOUTH-CENTRAL ILLINOIS

CITY           SKY/WX    TMP DP  RH WIND       PRES   REMARKS
CARBONDALE     MOSUNNY   83  59  44 N6        30.05S HX  83
CAIRO*         SUNNY     84  64  49 W7        30.05R HX  85
EFFINGHAM*     CLOUDY    84  62  47 W8        30.05F HX  85
MARION         PTSUNNY   84  61  45 W9        30.06S HX  84
MT. VERNON     MOSUNNY   79  64  61 CALM      30.06S HX  81
CENTRALIA*     CLOUDY    82  62  52 W3        30.04F HX  82
SALEM*         PTSUNNY   82  62  49 W5        30.05S HX  83
METROPOLIS*    SUNNY     85  65  50 W9        30.04S HX  87
$$

ILZ067-068-072-073-078-083-087-091-300000-
SOUTHEAST ILLINOIS

CITY           SKY/WX    TMP DP  RH WIND       PRES   REMARKS
LAWRENCEVILLE  SUNNY     85  58  39 NW13      30.03S HX  84
FLORA*         SUNNY     83  61  46 NW5       30.04F HX  84
FAIRFIELD*     MOSUNNY   82  59  45 CALM      30.03F HX  82
HARRISBURG*    SUNNY     83  64  52 N9        30.04F HX  85
ROBINSON*      MOSUNNY   82  59  45 W8        30.04S HX  82
CARMI*         SUNNY     84  63  48 NW8       30.03S HX  85
$$

ABBREVIATIONS USED IN REMARKS
   TC - TEMPERATURE IN CELSIUS
  WCI - WIND CHILL INDEX
   HX - HEAT INDEX
  VSB - VISIBILITY
$$





USA.gov is the U.S. government's official web portal to all federal, state and local government web resources and services.